FW2458 Weather Reports


Display with metric or nautical units.
time (UTC)temp
F
wind
direction
speed
MPH
gust
MPH
rain 1hr
in
rain 24hr
in
rain mn
in
humidity
%
barometer
mb
20260906141257 69 75 1.0 4.0 0.00 0.00 0.00 78 1015.5
20260906140527 69 65 1.0 4.0 0.00 0.00 0.00 78 1015.6
20260906140028 70 61 1.0 5.0 0.00 0.00 0.00 79 1015.6
20260906135528 70 61 1.0 5.0 0.00 0.00 0.00 78 1015.7
20260906135028 70 62 0.0 5.0 0.00 0.00 0.00 78 1015.6
20260906134527 70 62 1.0 5.0 0.00 0.00 0.00 78 1015.6
20260906134512 70 68 1.0 6.0 0.00 0.00 0.00 78 1015.5
20260906133524 70 93 1.0 6.0 0.00 0.00 0.00 77 1015.5
20260906133017 71 54 2.0 5.0 0.00 0.00 0.00 78 1015.5
20260906132725 70 84 2.0 5.0 0.00 0.00 0.00 77 1015.6
20260906132001 70 65 1.0 4.0 0.00 0.00 0.00 82 1015.4
20260906131713 70 62 1.0 5.0 0.00 0.00 0.00 81 1015.5
20260906130943 69 65 0.0 5.0 0.00 0.00 0.00 80 1015.5
20260906130450 69 100 1.0 7.0 0.00 0.00 0.00 81 1015.5
20260906125929 69 100 1.0 7.0 0.00 0.00 0.00 82 1015.4
20260906125419 68 53 1.0 4.0 0.00 0.00 0.00 83 1015.3
20260906124913 68 55 0.0 4.0 0.00 0.00 0.00 84 1015.3
20260906124408 67 57 0.0 4.0 0.00 0.00 0.00 85 1015.3
20260906123857 66 55 0.0 4.0 0.00 0.00 0.00 86 1015.2
20260906123351 65 49 1.0 3.0 0.00 0.00 0.00 87 1015.3
20260906122845 65 49 1.0 3.0 0.00 0.00 0.00 90 1015.2
20260906122335 64 49 1.0 3.0 0.00 0.00 0.00 91 1015.2
20260906122051 63 46 1.0 3.0 0.00 0.00 0.00 92 1015.1
20260906121324 63 46 0.0 3.0 0.00 0.00 0.00 93 1015.1
20260906120813 62 46 0.0 3.0 0.00 0.00 0.00 93 1015.1
20260906120307 62 46 0.0 1.0 0.00 0.00 0.00 93 1015.0
20260906115801 61 46 0.0 1.0 0.00 0.00 0.00 94 1015.0
20260906115251 61 46 0.0 1.0 0.00 0.00 0.00 93 1014.9
20260906114745 61 46 0.0 0.0 0.00 0.00 0.00 93 1015.0
20260906114239 61 46 0.0 0.0 0.00 0.00 0.00 93 1014.9
20260906113950 61 46 0.0 0.0 0.00 0.00 0.00 93 1014.8
20260906113223 60 46 0.0 0.0 0.00 0.00 0.00 93 1014.6
20260906112717 60 46 0.0 0.0 0.00 0.00 0.00 93 1014.6
20260906112442 60 46 0.0 0.0 0.00 0.00 0.00 93 1014.6
20260906111928 60 46 0.0 0.0 0.00 0.00 0.00 93 1014.6
20260906111421 60 46 0.0 0.0 0.00 0.00 0.00 93 1014.4
20260906110645 60 46 0.0 1.0 0.00 0.00 0.00 93 1014.4
20260906110405 60 46 0.0 1.0 0.00 0.00 0.00 93 1014.4
20260906105633 60 46 0.0 2.0 0.00 0.00 0.00 93 1014.4
20260906105123 60 46 0.0 1.0 0.00 0.00 0.00 93 1014.3
20260906104843 60 46 0.0 0.0 0.00 0.00 0.00 93 1014.3
20260906104111 60 46 0.0 0.0 0.00 0.00 0.00 93 1014.2
20260906103601 60 46 0.0 0.0 0.00 0.00 0.00 92 1014.2
20260906103055 60 46 0.0 0.0 0.00 0.00 0.00 92 1014.0
20260906102550 60 46 0.0 0.0 0.00 0.00 0.00 92 1013.9
20260906102306 60 46 0.0 0.0 0.00 0.00 0.00 92 1013.9
20260906101816 60 46 0.0 0.0 0.00 0.00 0.00 92 1013.8
20260906101040 60 46 0.0 0.0 0.00 0.00 0.00 92 1013.8
20260906100744 60 46 0.0 0.0 0.00 0.00 0.00 92 1013.8
20260906100018 60 46 0.0 0.0 0.00 0.00 0.00 91 1013.7
20260906095517 60 46 0.0 0.0 0.00 0.00 0.00 91 1013.7
20260906094513 60 46 0.0 0.0 0.00 0.00 0.00 91 1013.5
20260906094244 60 46 0.0 0.0 0.00 0.00 0.00 91 1013.5
20260906093736 61 46 0.0 0.0 0.00 0.00 0.00 91 1013.4
20260906093008 61 46 0.0 0.0 0.00 0.00 0.00 90 1013.4
20260906092506 61 46 0.0 0.0 0.00 0.00 0.00 90 1013.3
20260906092004 61 46 0.0 0.0 0.00 0.00 0.00 90 1013.2
20260906091502 61 46 0.0 0.0 0.00 0.00 0.00 90 1013.1
20260906091001 62 46 0.0 0.0 0.00 0.00 0.00 90 1013.0
20260906090458 62 46 0.0 0.0 0.00 0.00 0.00 91 1012.9
20260906085954 62 46 0.0 0.0 0.00 0.00 0.00 91 1012.8
20260906085452 62 46 0.0 1.0 0.00 0.00 0.00 90 1012.9
20260906084953 62 46 0.0 1.0 0.00 0.00 0.00 91 1012.9
20260906084450 62 46 0.0 1.0 0.00 0.00 0.00 90 1012.9
20260906084426 62 46 0.0 1.0 0.00 0.00 0.00 91 1012.9
20260906083446 62 46 0.0 2.0 0.00 0.00 0.00 91 1012.9
20260906082942 62 46 0.0 2.0 0.00 0.00 0.00 90 1012.8
20260906082443 62 39 0.0 1.0 0.00 0.00 0.00 90 1012.9
20260906081947 62 39 0.0 0.0 0.00 0.00 0.00 90 1012.9
20260906081443 62 39 0.0 1.0 0.00 0.00 0.00 90 1012.7
20260906080943 62 39 0.0 1.0 0.00 0.00 0.00 90 1012.7
20260906080443 62 39 0.0 1.0 0.00 0.00 0.00 89 1012.7
20260906075942 62 39 0.0 1.0 0.00 0.00 0.00 89 1012.8
20260906075444 62 39 0.0 2.0 0.00 0.00 0.00 90 1012.7
20260906074941 62 39 0.0 2.0 0.00 0.00 0.00 90 1012.7
20260906074439 63 39 0.0 3.0 0.00 0.00 0.00 90 1012.7
20260906073940 63 39 0.0 3.0 0.00 0.00 0.00 90 1012.8
20260906073439 63 42 0.0 1.0 0.00 0.00 0.00 90 1012.8
20260906072938 62 44 0.0 1.0 0.00 0.00 0.00 90 1012.8
20260906072658 62 42 0.0 1.0 0.00 0.00 0.00 90 1012.7
20260906072541 62 42 0.0 1.0 0.00 0.00 0.00 90 1012.8
20260906071921 62 42 0.0 2.0 0.00 0.00 0.00 90 1012.7
20260906070927 62 42 0.0 2.0 0.00 0.00 0.00 90 1012.6
20260906070422 62 42 0.0 0.0 0.00 0.00 0.00 89 1012.6
20260906065920 62 42 0.0 0.0 0.00 0.00 0.00 89 1012.6
20260906065419 62 42 0.0 0.0 0.00 0.00 0.00 89 1012.8
20260906064916 63 42 0.0 0.0 0.00 0.00 0.00 88 1012.8
20260906064413 63 42 0.0 0.0 0.00 0.00 0.00 88 1012.7
20260906064134 63 42 0.0 0.0 0.00 0.00 0.00 88 1012.8
20260906063409 63 42 0.0 1.0 0.00 0.00 0.00 88 1012.8
20260906063135 63 42 0.0 1.0 0.00 0.00 0.00 88 1012.7
20260906062408 63 42 0.0 1.0 0.00 0.00 0.00 87 1012.8
20260906062128 63 42 0.0 0.0 0.00 0.00 0.00 87 1012.8
20260906061405 64 42 0.0 0.0 0.00 0.00 0.00 86 1012.8
20260906060905 64 42 0.0 0.0 0.00 0.00 0.00 86 1012.9
20260906060405 64 42 0.0 1.0 0.00 0.00 0.00 86 1013.0
20260906060122 64 42 0.0 1.0 0.00 0.00 0.00 85 1013.0
20260906055400 65 42 0.0 1.0 0.00 0.00 0.00 85 1013.0
20260906054916 65 42 0.0 3.0 0.00 0.00 0.00 85 1013.1
20260906054355 65 42 0.0 3.0 0.00 0.00 0.00 85 1013.0
20260906053848 65 42 0.0 4.0 0.00 0.00 0.00 85 1013.0
20260906053349 65 42 0.0 4.0 0.00 0.00 0.00 85 1013.0
20260906052851 64 148 0.0 2.0 0.00 0.00 0.00 86 1012.9
20260906052351 64 148 0.0 2.0 0.00 0.00 0.00 86 1013.0
20260906051849 64 146 0.0 2.0 0.00 0.00 0.00 87 1013.1
20260906051350 64 145 0.0 2.0 0.00 0.00 0.00 87 1013.1
20260906051109 64 67 0.0 1.0 0.00 0.00 0.00 87 1013.1
20260906050348 64 67 0.0 1.0 0.00 0.00 0.00 87 1013.1
20260906045850 64 67 0.0 0.0 0.00 0.00 0.00 87 1013.2
20260906045350 64 67 0.0 0.0 0.00 0.00 0.00 87 1013.1
20260906045105 64 67 0.0 0.0 0.00 0.00 0.00 87 1013.2
20260906044348 64 67 0.0 0.0 0.00 0.00 0.00 86 1013.1
20260906043848 65 67 0.0 0.0 0.00 0.00 0.00 86 1013.1
20260906043349 65 67 0.0 0.0 0.00 0.00 0.00 86 1013.0
20260906042851 65 67 0.0 0.0 0.00 0.00 0.00 86 1012.9
20260906042350 65 67 0.0 0.0 0.00 0.00 0.00 86 1012.9
20260906042333 65 67 0.0 0.0 0.00 0.00 0.00 86 1012.8
20260906041613 65 67 0.0 0.0 0.00 0.00 0.00 86 1012.9
20260906040846 65 67 0.0 0.0 0.00 0.00 0.00 86 1013.0
20260906040346 65 67 0.0 0.0 0.00 0.00 0.00 87 1012.8
20260906040116 65 67 0.0 0.0 0.00 0.00 0.00 87 1012.8
20260906035345 65 67 0.0 0.0 0.00 0.00 0.00 87 1012.9
20260906034844 65 67 0.0 0.0 0.00 0.00 0.00 87 1013.1
20260906034346 65 67 0.0 1.0 0.00 0.00 0.00 87 1012.9
20260906033846 65 67 0.0 1.0 0.00 0.00 0.00 87 1012.9
20260906033344 65 67 0.0 0.0 0.00 0.00 0.00 86 1012.9
20260906032842 65 67 0.0 0.0 0.00 0.00 0.00 86 1012.9
20260906032343 65 67 0.0 0.0 0.00 0.00 0.00 87 1012.9
20260906031845 65 67 0.0 0.0 0.00 0.00 0.00 86 1012.8
20260906031339 65 67 0.0 0.0 0.00 0.00 0.00 86 1012.6
20260906030843 65 67 0.0 0.0 0.00 0.00 0.00 86 1012.6
20260906030605 65 67 0.0 0.0 0.00 0.00 0.00 84 1012.7
20260906025840 66 67 0.0 0.0 0.00 0.00 0.00 84 1012.7
20260906025341 66 67 0.0 0.0 0.00 0.00 0.00 84 1012.7
20260906024840 66 67 0.0 1.0 0.00 0.00 0.00 84 1012.6
20260906024340 66 67 0.0 1.0 0.00 0.00 0.00 84 1012.7
20260906024100 66 67 0.0 1.0 0.00 0.00 0.00 84 1012.7
20260906023336 67 67 0.0 1.0 0.00 0.00 0.00 84 1012.7
20260906022835 67 67 0.0 1.0 0.00 0.00 0.00 84 1012.7
20260906022336 67 67 0.0 1.0 0.00 0.00 0.00 84 1012.7
20260906021831 67 67 0.0 1.0 0.00 0.00 0.00 84 1012.7
20260906021544 67 67 0.0 1.0 0.00 0.00 0.00 84 1012.7
20260906020814 67 67 0.0 1.0 0.00 0.00 0.00 85 1012.7
20260906020308 67 67 0.0 1.0 0.00 0.00 0.00 84 1012.6
20260906015804 67 67 0.0 1.0 0.00 0.00 0.00 84 1012.6
20260906015252 67 67 0.0 1.0 0.00 0.00 0.00 83 1012.6
20260906015019 67 67 0.0 1.0 0.00 0.00 0.00 83 1012.5
20260906014458 67 67 0.0 1.0 0.00 0.00 0.00 83 1012.5
20260906013730 67 67 0.0 0.0 0.00 0.00 0.00 83 1012.4
20260906013224 67 67 0.0 0.0 0.00 0.00 0.00 83 1012.4
20260906012718 67 67 0.0 0.0 0.00 0.00 0.00 83 1012.4
20260906012208 67 67 0.0 0.0 0.00 0.00 0.00 84 1012.3
20260906011702 67 67 0.0 0.0 0.00 0.00 0.00 84 1012.4
20260906011155 68 67 0.0 0.0 0.00 0.00 0.00 84 1012.3
20260906010646 68 67 0.0 0.0 0.00 0.00 0.00 85 1012.2
20260906010357 68 67 0.0 0.0 0.00 0.00 0.00 85 1012.2
20260906005634 68 67 0.0 0.0 0.00 0.00 0.00 85 1012.1
20260906005124 68 67 0.0 0.0 0.00 0.00 0.00 84 1012.1
20260906004618 68 67 0.0 0.0 0.00 0.00 0.00 84 1012.0
20260906004113 68 67 0.0 0.0 0.00 0.00 0.00 84 1012.1
20260906003602 68 67 0.0 0.0 0.00 0.00 0.00 84 1012.0
20260906003056 68 67 0.0 0.0 0.00 0.00 0.00 84 1011.9
20260906002550 68 67 0.0 0.0 0.00 0.00 0.00 84 1011.7
20260906002040 68 67 0.0 0.0 0.00 0.00 0.00 84 1011.7
20260906001534 69 67 0.0 0.0 0.00 0.00 0.00 83 1011.6
20260906001028 69 67 0.0 0.0 0.00 0.00 0.00 83 1011.6
20260906000518 69 67 0.0 0.0 0.00 0.00 0.00 83 1011.5
20260906000237 69 67 0.0 0.0 0.00 0.00 0.00 82 1011.5
20260905235506 70 67 0.0 0.0 0.00 0.00 0.00 82 1011.4
20260905234956 70 67 0.0 0.0 0.00 0.00 0.00 81 1011.3
20260905234451 70 67 0.0 0.0 0.00 0.00 0.00 80 1011.3
20260905233944 71 67 0.0 0.0 0.00 0.00 0.00 80 1011.2
20260905233434 71 67 0.0 0.0 0.00 0.00 0.00 80 1011.2
20260905232928 71 67 0.0 0.0 0.00 0.00 0.00 79 1011.2
20260905232422 72 67 0.0 0.0 0.00 0.00 0.00 79 1011.2
20260905231912 72 67 0.0 0.0 0.00 0.00 0.00 78 1011.2
20260905231406 73 67 0.0 0.0 0.00 0.00 0.00 77 1011.3
20260905230859 73 67 0.0 0.0 0.00 0.00 0.00 77 1011.3
20260905230350 73 67 0.0 0.0 0.00 0.00 0.00 76 1011.3
20260905225844 74 67 0.0 0.0 0.00 0.00 0.00 76 1011.1
20260905225339 74 67 0.0 0.0 0.00 0.00 0.00 75 1011.1
20260905224828 74 67 0.0 0.0 0.00 0.00 0.00 74 1011.2
20260905224540 75 67 0.0 0.0 0.00 0.00 0.00 74 1011.2
20260905223815 75 67 0.0 0.0 0.00 0.00 0.00 73 1011.0
20260905223306 75 67 0.0 0.0 0.00 0.00 0.00 71 1011.0
20260905222800 75 67 0.0 0.0 0.00 0.00 0.00 70 1010.9
20260905222254 75 67 0.0 0.0 0.00 0.00 0.00 70 1010.9
20260905221744 76 67 0.0 0.0 0.00 0.00 0.00 70 1010.9
20260905221243 76 67 0.0 0.0 0.00 0.00 0.00 69 1010.8
20260905220744 76 67 0.0 0.0 0.00 0.00 0.00 68 1010.8
20260905220243 76 67 0.0 3.0 0.00 0.00 0.00 68 1010.7
20260905215741 76 67 0.0 3.0 0.00 0.00 0.00 68 1010.7
20260905215240 76 67 0.0 3.0 0.00 0.00 0.00 65 1010.7
20260905214740 76 67 0.0 3.0 0.00 0.00 0.00 66 1010.7
20260905214504 76 67 1.0 3.0 0.00 0.00 0.00 65 1010.6
20260905213741 76 67 0.0 3.0 0.00 0.00 0.00 67 1010.7
20260905213239 76 67 0.0 1.0 0.00 0.00 0.00 69 1010.6
20260905212738 76 67 1.0 3.0 0.00 0.00 0.00 69 1010.7
20260905212238 76 67 1.0 3.0 0.00 0.00 0.00 68 1010.7
20260905211735 76 68 1.0 3.0 0.00 0.00 0.00 68 1010.6
20260905211450 76 68 1.0 3.0 0.00 0.00 0.00 67 1010.5
20260905210734 76 67 0.0 3.0 0.00 0.00 0.00 67 1010.5
20260905210234 76 67 0.0 3.0 0.00 0.00 0.00 68 1010.5
20260905205735 76 63 1.0 3.0 0.00 0.00 0.00 69 1010.5
20260905205235 76 63 1.0 3.0 0.00 0.00 0.00 67 1010.6
20260905204734 77 69 0.0 2.0 0.00 0.00 0.00 68 1010.6
20260905204507 77 39 0.0 2.0 0.00 0.00 0.00 67 1010.6
20260905203735 77 39 0.0 0.0 0.00 0.00 0.00 67 1010.5
20260905203240 78 39 0.0 0.0 0.00 0.00 0.00 66 1010.2
20260905203233 77 39 0.0 0.0 0.00 0.00 0.00 65 1010.4
20260905202231 78 39 0.0 0.0 0.00 0.00 0.00 64 1010.3
20260905201731 78 39 0.0 0.0 0.00 0.00 0.00 65 1010.4
20260905201231 78 39 0.0 2.0 0.00 0.00 0.00 66 1010.5
20260905200950 77 39 0.0 2.0 0.00 0.00 0.00 65 1010.4
20260905200459 77 39 0.0 2.0 0.00 0.00 0.00 64 1010.4
20260905195948 77 38 0.0 2.0 0.00 0.00 0.00 65 1010.4
20260905195225 77 38 0.0 2.0 0.00 0.00 0.00 64 1010.5
20260905194726 77 38 0.0 2.0 0.00 0.00 0.00 66 1010.4
20260905194444 77 38 0.0 2.0 0.00 0.00 0.00 64 1010.3
20260905193715 77 38 1.0 4.0 0.00 0.00 0.00 65 1010.5
20260905193439 78 38 1.0 4.0 0.00 0.00 0.00 64 1010.5
20260905192717 78 34 1.0 4.0 0.00 0.00 0.00 63 1010.4
20260905192441 78 96 1.0 4.0 0.00 0.00 0.00 63 1010.4
20260905191716 78 89 1.0 4.0 0.00 0.00 0.00 62 1010.3
20260905191219 78 78 1.0 4.0 0.00 0.00 0.00 64 1010.4
20260905191209 78 78 1.0 5.0 0.00 0.00 0.00 61 1010.5
20260905190214 78 77 1.0 5.0 0.00 0.00 0.00 61 1010.5
20260905185713 79 153 2.0 5.0 0.00 0.00 0.00 61 1010.6
20260905185212 78 78 1.0 5.0 0.00 0.00 0.00 62 1010.7
20260905184712 78 138 1.0 2.0 0.00 0.00 0.00 63 1010.6
20260905184213 78 138 1.0 2.0 0.00 0.00 0.00 60 1010.6
20260905183711 78 138 1.0 2.0 0.00 0.00 0.00 61 1010.7
20260905183432 78 180 1.0 4.0 0.00 0.00 0.00 61 1010.7
20260905182711 78 180 1.0 4.0 0.00 0.00 0.00 60 1010.8
20260905182213 78 178 1.0 4.0 0.00 0.00 0.00 63 1010.8
20260905181712 78 80 2.0 4.0 0.00 0.00 0.00 64 1010.7
20260905181209 78 79 1.0 4.0 0.00 0.00 0.00 62 1010.8
20260905180717 77 111 1.0 4.0 0.00 0.00 0.00 66 1010.9
20260905180711 77 188 1.0 4.0 0.00 0.00 0.00 63 1010.8
20260905175707 76 86 1.0 4.0 0.00 0.00 0.00 64 1011.0
20260905175207 77 86 1.0 5.0 0.00 0.00 0.00 62 1011.0
20260905174707 78 86 1.0 5.0 0.00 0.00 0.00 61 1011.0
20260905174209 78 174 2.0 5.0 0.00 0.00 0.00 61 1010.9
20260905173706 78 53 2.0 5.0 0.00 0.00 0.00 60 1011.0
20260905173208 78 57 1.0 4.0 0.00 0.00 0.00 63 1011.0
20260905172708 77 98 1.0 4.0 0.00 0.00 0.00 66 1011.0
20260905172208 77 164 1.0 4.0 0.00 0.00 0.00 65 1011.1
20260905171929 77 164 2.0 4.0 0.00 0.00 0.00 63 1011.2
20260905171425 77 202 2.0 4.0 0.00 0.00 0.00 62 1011.3
20260905170708 78 192 1.0 4.0 0.00 0.00 0.00 62 1011.3
20260905170207 77 44 2.0 4.0 0.00 0.00 0.00 64 1011.4
20260905165922 77 56 2.0 4.0 0.00 0.00 0.00 63 1011.4
20260905165207 77 84 1.0 4.0 0.00 0.00 0.00 64 1011.3
20260905164708 77 129 1.0 3.0 0.00 0.00 0.00 64 1011.3
20260905164206 77 123 1.0 4.0 0.00 0.00 0.00 66 1011.5
20260905163705 77 115 1.0 4.0 0.00 0.00 0.00 65 1011.4
20260905163207 77 163 1.0 4.0 0.00 0.00 0.00 65 1011.5
20260905162707 77 178 1.0 4.0 0.00 0.00 0.00 63 1011.5
20260905162205 76 158 2.0 7.0 0.00 0.00 0.00 67 1011.5
20260905161707 76 69 2.0 7.0 0.00 0.00 0.00 64 1011.5
20260905161206 75 78 1.0 4.0 0.00 0.00 0.00 68 1011.5
20260905160707 75 82 1.0 4.0 0.00 0.00 0.00 69 1011.4
20260905160205 75 86 1.0 3.0 0.00 0.00 0.00 70 1011.5
20260905155705 74 86 1.0 3.0 0.00 0.00 0.00 70 1011.4
20260905155426 74 86 1.0 4.0 0.00 0.00 0.00 69 1011.4
20260905154707 75 70 1.0 4.0 0.00 0.00 0.00 68 1011.4
20260905154205 75 72 1.0 4.0 0.00 0.00 0.00 67 1011.4
20260905153705 75 90 1.0 4.0 0.00 0.00 0.00 67 1011.4
20260905153204 75 44 1.0 4.0 0.00 0.00 0.00 68 1011.3
20260905152704 75 57 1.0 4.0 0.00 0.00 0.00 66 1011.4
20260905152203 75 86 1.0 4.0 0.00 0.00 0.00 70 1011.4
20260905151702 76 55 1.0 4.0 0.00 0.00 0.00 68 1011.5
20260905151203 76 29 1.0 5.0 0.00 0.00 0.00 67 1011.5
20260905150703 76 210 2.0 5.0 0.00 0.00 0.00 65 1011.3
20260905150202 76 81 1.0 5.0 0.00 0.00 0.00 66 1011.4
20260905145701 76 111 2.0 5.0 0.00 0.00 0.00 68 1011.5
20260905145158 75 86 2.0 9.0 0.00 0.00 0.00 67 1011.4
20260905144655 75 58 2.0 9.0 0.00 0.00 0.00 66 1011.4
20260905144638 75 98 2.0 9.0 0.00 0.00 0.00 65 1011.5
20260905143655 76 24 1.0 9.0 0.00 0.00 0.00 65 1011.5
20260905143153 76 167 1.0 8.0 0.00 0.00 0.00 67 1011.4
20260905142654 75 71 2.0 8.0 0.00 0.00 0.00 69 1011.3
20260905142154 76 34 2.0 8.0 0.00 0.00 0.00 67 1011.4
20260905141655 76 69 1.0 4.0 0.00 0.00 0.00 68 1011.2